Location: Lone Wolf Observatory
(41.0360°N, 89.2260°W)
Time: 07:06:08
(UTC-05:00)

Amateur Radio Satellites - All Passes

Search period start: 01 October 2016 06:36
Search period end: 02 October 2016 06:36
Location: Lone Wolf Observatory, 41.0360°N, 89.2260°W

Satellite Date Start Highest point End Downlink Frequencies (MHz)
Time Altitude Azimuth
CUSAT 1 01 Oct 06:37:06 06:44:21 54° 268° (W) 06:50:15 437.405
AIST 1 01 Oct 06:40:19 06:42:02 12° 291° (WNW) 06:43:46
BRITE-PL 01 Oct 06:42:04 06:46:48 84° 283° (WNW) 06:51:08 437.365/2234.400
HORYU 2 01 Oct 06:45:27 06:49:42 45° 289° (WNW) 06:53:56 437.375
RS-15 01 Oct 06:47:48 06:57:57 32° 257° (WSW) 07:07:55 29.354- 29.394
NOAA 15 01 Oct 06:54:49 07:00:01 54° 101° (E) 07:05:09 137.62
NOAA 18 01 Oct 06:55:24 07:00:24 35° 98° (E) 07:05:22 137.9125
DANDE 01 Oct 06:59:19 07:07:47 84° 263° (W) 07:15:16 436.750
LilacSat-2 01 Oct 07:15:29 07:19:21 86° 102° (ESE) 07:23:12 437.200
O/OREOS (USA 219) 01 Oct 07:21:06 07:25:35 55° 295° (WNW) 07:30:07 437.305
CUTE-I 01 Oct 07:23:05 07:28:29 82° 103° (ESE) 07:33:52 437.470
Cubesat XI-IV 01 Oct 07:24:09 07:29:32 82° 104° (ESE) 07:34:55 437.490
Cosmos 2499 01 Oct 07:25:49 07:30:13 18° 81° (E) 07:34:37 435.465 / 435.565
BEESAT 3 01 Oct 07:38:06 07:39:25 11° 39° (NE) 07:40:44 437.485
AO-7 01 Oct 07:39:25 07:42:23 12° 317° (NW) 07:45:21 29.400- 29.500
GOMX 1 01 Oct 07:50:55 07:54:53 36° 290° (WNW) 07:58:42 467.674
CUTE 1.7 + AOD 2 01 Oct 07:51:40 07:54:23 16° 92° (E) 07:57:05 437.475
DOVE 4 01 Oct 07:53:03 07:57:14 84° 281° (W) 08:01:23 437.250
CANX-2 01 Oct 07:53:19 07:56:29 20° 93° (E) 07:59:38 2200.000
STRAND 1 01 Oct 07:59:06 08:03:59 45° 261° (W) 08:08:53 437.568
GONETS M04 01 Oct 08:11:06 08:19:33 53° 89° (E) 08:28:02
PRISM 01 Oct 08:25:22 08:29:05 32° 70° (ENE) 08:32:49 437.425
NOAA 15 01 Oct 08:35:34 08:39:21 20° 298° (WNW) 08:43:08 137.62
HO-68 01 Oct 08:35:58 08:42:57 53° 101° (E) 08:49:53 435.675
NOAA 18 01 Oct 08:36:10 08:40:57 32° 294° (WNW) 08:45:43 137.9125
CINEMA 3 01 Oct 08:37:31 08:41:44 75° 102° (ESE) 08:46:03 145.822/145.860
BEESAT 2 01 Oct 08:40:04 08:43:12 21° 46° (NE) 08:46:19 435.950
DANDE 01 Oct 08:44:15 08:49:13 18° 282° (WNW) 08:53:53 436.750
COMPASS 1 01 Oct 08:45:10 08:48:53 30° 96° (E) 08:52:34 437.405
PHONESAT 2.4 01 Oct 08:46:22 08:48:07 15° 151° (SSE) 08:49:53 2401.200-2431.200
ANTELSAT 01 Oct 09:02:26 09:03:26 11° 62° (ENE) 09:04:27 437.575/2403.000
CUTE-I 01 Oct 09:05:05 09:07:49 14° 301° (WNW) 09:10:32 437.470
Cubesat XI-IV 01 Oct 09:06:12 09:08:54 14° 301° (WNW) 09:11:35 437.490
FUNcube-1 01 Oct 09:07:20 09:10:06 16° 92° (E) 09:12:56 145.935
BEESAT 3 01 Oct 09:13:41 09:17:41 86° 58° (ENE) 09:21:39 437.485
Cosmos 2499 01 Oct 09:15:21 09:22:27 73° 279° (W) 09:29:33 435.465 / 435.565
CUBEBUG 2 01 Oct 09:19:35 09:23:52 58° 100° (E) 09:28:16 437.445
TIGRISAT 01 Oct 09:20:06 09:22:43 16° 65° (ENE) 09:25:19 435.000
SEEDS 01 Oct 09:20:32 09:24:47 72° 285° (WNW) 09:29:01 437.485
CUTE 1.7 + AOD 2 01 Oct 09:26:20 09:30:25 42° 288° (WNW) 09:34:28 437.475
CANX-2 01 Oct 09:28:29 09:32:25 35° 289° (WNW) 09:36:20 2200.000
UWE-3 01 Oct 09:29:41 09:33:55 49° 99° (E) 09:38:16 435.000/436.395/437.385
AAUSAT CUBESAT 2 01 Oct 09:32:03 09:36:16 82° 102° (ESE) 09:40:26 437.432
Oscar 11 01 Oct 09:41:19 09:45:25 38° 98° (E) 09:49:29 145.826/435.025
ZACube-1 01 Oct 09:50:23 09:54:40 52° 100° (E) 09:59:01 437.345
UNISAT 6 01 Oct 10:00:16 10:04:20 46° 72° (ENE) 10:08:25 437.425
PRISM 01 Oct 10:01:18 10:04:25 20° 266° (W) 10:07:34 437.425
GONETS M04 01 Oct 10:08:48 10:16:39 35° 289° (WNW) 10:24:35
BEESAT 2 01 Oct 10:17:24 10:21:08 38° 244° (WSW) 10:24:52 435.950
DELFI C3 01 Oct 10:19:31 10:23:19 39° 98° (E) 10:27:03 145.870
COMPASS 1 01 Oct 10:20:57 10:24:17 23° 292° (WNW) 10:27:35 437.405
PHONESAT 2.4 01 Oct 10:20:58 10:23:49 53° 166° (SSE) 10:26:42 2401.200-2431.200
HO-68 01 Oct 10:24:16 10:30:18 31° 299° (WNW) 10:36:22 435.675
QB50P1 01 Oct 10:29:10 10:31:00 13° 63° (ENE) 10:32:51 145.935-145.965
ANTELSAT 01 Oct 10:35:19 10:39:33 71° 259° (W) 10:43:49 437.575/2403.000
POPSAT HIP 1 01 Oct 10:42:03 10:44:48 17° 65° (ENE) 10:47:32 437.405
FUNcube-1 01 Oct 10:42:23 10:46:32 45° 287° (WNW) 10:50:47 145.935
JAS-2 01 Oct 10:46:23 10:51:55 27° 60° (ENE) 10:57:55 435.910
TIGRISAT 01 Oct 10:54:58 10:59:02 44° 261° (W) 11:03:08 435.000
NANOSAT C BR1 01 Oct 10:54:59 10:58:15 22° 68° (ENE) 11:01:31 145.865
CUBEBUG 2 01 Oct 10:57:52 11:00:02 14° 296° (WNW) 11:02:15 437.445
UWE-3 01 Oct 11:07:21 11:10:01 16° 295° (WNW) 11:12:43 435.000/436.395/437.385
HUMSAT D 01 Oct 11:12:44 11:17:01 83° 100° (E) 11:21:19 437.325/437.525
Cosmos 2499 01 Oct 11:14:57 11:16:59 11° 301° (WNW) 11:19:01 435.465 / 435.565
Oscar 11 01 Oct 11:18:09 11:21:16 19° 294° (WNW) 11:24:22 145.826/435.025
ESTCUBE 1 01 Oct 11:21:01 11:23:41 15° 91° (E) 11:26:20 437.505/2401.250
QB50P2 01 Oct 11:21:17 11:25:20 49° 73° (ENE) 11:29:25 145.880/145.840
POLYITAN 1 01 Oct 11:23:28 11:27:30 49° 73° (ENE) 11:31:34 437.675
ZACube-1 01 Oct 11:28:01 11:30:33 15° 295° (WNW) 11:33:06 437.345
AIST 2 01 Oct 11:35:05 11:39:09 47° 53° (NE) 11:43:13 435.215
UNISAT 6 01 Oct 11:38:54 11:41:18 15° 268° (W) 11:43:43 437.425
BUGSAT 1 01 Oct 11:42:25 11:45:53 28° 69° (ENE) 11:49:21 437.445
DELFI C3 01 Oct 11:55:18 11:57:48 16° 294° (WNW) 12:00:18 145.870
DUCHIFAT 1 01 Oct 11:55:31 11:59:42 81° 259° (W) 12:03:53 145.980
AISAT 01 Oct 11:56:22 11:59:22 18° 93° (E) 12:02:21 437.250
PHONESAT 2.4 01 Oct 11:56:54 11:59:50 81° 179° (S) 12:02:46 2401.200-2431.200
Oscar 19 01 Oct 11:58:46 12:00:38 12° 58° (ENE) 12:02:30 437.125/150
PCSat 01 Oct 11:59:44 12:04:12 25° 48° (NE) 12:08:38 145.827
QB50P1 01 Oct 12:02:09 12:06:16 58° 259° (W) 12:10:26 145.935-145.965
YUBILEINY 01 Oct 12:04:23 12:08:23 14° 57° (ENE) 12:12:22 435.215
50 SAT 01 Oct 12:13:20 12:16:16 22° 95° (E) 12:19:11 437.505
POPSAT HIP 1 01 Oct 12:16:18 12:20:15 40° 261° (W) 12:24:14 437.405
DX 1 01 Oct 12:18:05 12:21:02 18° 93° (E) 12:23:59 434.975-435.025
JAS-2 01 Oct 12:29:45 12:36:17 62° 260° (W) 12:43:40 435.910
NANOSAT C BR1 01 Oct 12:30:08 12:33:49 30° 263° (W) 12:37:31 145.865
CUBEBUG 1 01 Oct 12:32:27 12:36:44 56° 100° (E) 12:40:57 437.445
VELOX 1 01 Oct 12:38:37 12:42:55 49° 100° (E) 12:47:09 145.980
AUBIESAT-1 01 Oct 12:50:14 12:52:36 18° 101° (E) 12:55:00 437.475
SPROUT 01 Oct 12:54:32 12:58:34 41° 98° (E) 13:02:36 437.525
ESTCUBE 1 01 Oct 12:56:22 13:00:46 50° 287° (WNW) 13:05:07 437.505/2401.250
QB50P2 01 Oct 12:59:20 13:01:25 13° 269° (W) 13:03:30 145.880/145.840
POLYITAN 1 01 Oct 13:01:31 13:03:35 13° 269° (W) 13:05:39 437.675
AO-7 01 Oct 13:05:11 13:06:52 11° 41° (NE) 13:08:33 29.400- 29.500
AIST 2 01 Oct 13:14:36 13:17:16 17° 250° (WSW) 13:19:56 435.215
UKube-1 01 Oct 13:16:40 13:20:57 61° 101° (ESE) 13:25:11 .
BUGSAT 1 01 Oct 13:18:00 13:21:14 22° 265° (W) 13:24:28 437.445
Gurwin Techsat 1B 01 Oct 13:24:58 13:29:45 36° 68° (ENE) 13:34:34 435.225
M-CUBED/EXP-1 PRIME 01 Oct 13:30:27 13:33:43 86° 105° (ESE) 13:37:03 437.505
AISAT 01 Oct 13:31:54 13:36:01 40° 289° (WNW) 13:40:05 437.250
PHONESAT 2.4 01 Oct 13:33:01 13:35:47 37° 199° (SSW) 13:38:32 2401.200-2431.200
Oscar 19 01 Oct 13:33:57 13:39:09 88° 76° (ENE) 13:44:23 437.125/150
PCSat 01 Oct 13:42:37 13:47:54 52° 246° (WSW) 13:53:06 145.827
50 SAT 01 Oct 13:46:46 13:49:40 22° 291° (WNW) 13:52:32 437.505
DX 1 01 Oct 13:53:20 13:57:23 40° 289° (WNW) 14:01:25 434.975-435.025
Cosmos 2491 01 Oct 13:55:51 14:03:33 36° 85° (E) 14:11:16 435.465 / 435.565
YUBILEINY 01 Oct 13:58:18 14:07:01 70° 80° (E) 14:15:39 435.215
TISAT 1 01 Oct 14:00:21 14:04:20 42° 99° (E) 14:08:17 437.305
CUBEBUG 1 01 Oct 14:10:20 14:12:31 14° 297° (WNW) 14:14:42 437.445
Cosmos 2504 01 Oct 14:14:40 14:21:28 35° 73° (ENE) 14:28:37 435.465 / 435.565
VELOX 1 01 Oct 14:16:16 14:18:58 16° 296° (WNW) 14:21:38 145.980
SO-50 01 Oct 14:21:04 14:25:47 54° 118° (ESE) 14:30:27 436.795
AUBIESAT-1 01 Oct 14:24:24 14:27:04 23° 295° (WNW) 14:29:45 437.475
SPROUT 01 Oct 14:31:22 14:34:11 18° 295° (WNW) 14:37:01 437.525
ITAMSAT 1 01 Oct 14:36:15 14:41:09 45° 70° (ENE) 14:46:05 435.822/435.867
ITUPSAT 1 01 Oct 14:40:30 14:44:15 22° 94° (E) 14:47:59 437.325
AO-7 01 Oct 14:49:47 14:57:36 48° 63° (ENE) 15:05:25 29.400- 29.500
SWISSCUBE 01 Oct 14:50:54 14:55:12 32° 97° (E) 14:59:29 437.505
UKube-1 01 Oct 14:54:30 14:56:28 13° 298° (WNW) 14:58:25 .
BEESAT 01 Oct 15:03:17 15:07:46 38° 98° (E) 15:12:13 436.000
Gurwin Techsat 1B 01 Oct 15:05:09 15:09:43 29° 265° (W) 15:14:19 435.225
AIST 1 01 Oct 15:08:11 15:10:36 15° 70° (ENE) 15:13:00
Oscar 19 01 Oct 15:18:11 15:19:08 10° 272° (W) 15:20:04 437.125/150
TISAT 1 01 Oct 15:36:59 15:39:38 17° 295° (WNW) 15:42:17 437.305
KKS-1 01 Oct 15:50:59 15:52:39 12° 91° (E) 15:54:19 437.445
Cosmos 2491 01 Oct 15:51:35 16:00:03 50° 284° (WNW) 16:08:37 435.465 / 435.565
O/OREOS (USA 219) 01 Oct 15:52:18 15:56:18 28° 59° (ENE) 16:00:15 437.305
MOZHAYETS 4 01 Oct 15:53:47 15:57:30 23° 94° (E) 16:01:12
YUBILEINY 01 Oct 15:56:25 16:02:57 24° 279° (W) 16:09:28 435.215
SO-50 01 Oct 16:02:46 16:06:33 22° 316° (NW) 16:10:18 436.795
Cosmos 2504 01 Oct 16:07:50 16:14:54 45° 270° (W) 16:22:27 435.465 / 435.565
HORYU 2 01 Oct 16:08:24 16:11:08 16° 64° (ENE) 16:13:52 437.375
BRITE-PL 01 Oct 16:15:42 16:18:56 16° 62° (ENE) 16:22:05 437.365/2234.400
ITAMSAT 1 01 Oct 16:16:53 16:20:49 22° 266° (W) 16:24:46 435.822/435.867
ITUPSAT 1 01 Oct 16:17:43 16:22:11 39° 291° (WNW) 16:26:38 437.325
SWISSCUBE 01 Oct 16:28:50 16:32:52 27° 293° (WNW) 16:36:53 437.505
NOAA 15 01 Oct 16:39:06 16:41:00 12° 57° (ENE) 16:42:52 137.62
BEESAT 01 Oct 16:41:33 16:45:19 23° 294° (WNW) 16:49:04 436.000
AO-7 01 Oct 16:42:48 16:50:26 39° 261° (W) 16:58:06 29.400- 29.500
AIST 1 01 Oct 16:44:22 16:48:27 45° 267° (W) 16:52:30
CUTE-I 01 Oct 17:07:16 17:10:42 18° 61° (ENE) 17:14:09 437.470
Cubesat XI-IV 01 Oct 17:08:26 17:11:54 18° 61° (ENE) 17:15:23 437.490
GOMX 1 01 Oct 17:20:37 17:24:52 25° 68° (ENE) 17:28:57 467.674
DOVE 4 01 Oct 17:24:18 17:25:25 11° 62° (ENE) 17:26:30 437.250
CUBESAT XI-V 01 Oct 17:24:34 17:28:34 28° 95° (E) 17:32:32 437.345
KKS-1 01 Oct 17:25:14 17:29:37 62° 286° (WNW) 17:33:58 437.445
MOZHAYETS 4 01 Oct 17:30:29 17:34:42 35° 290° (WNW) 17:38:55
O/OREOS (USA 219) 01 Oct 17:31:41 17:35:39 29° 257° (WSW) 17:39:35 437.305
HORYU 2 01 Oct 17:43:02 17:47:17 48° 260° (W) 17:51:35 437.375
STARS 01 Oct 17:47:15 17:51:37 75° 285° (WNW) 17:55:59 437.465
BRITE-PL 01 Oct 17:51:03 17:56:45 79° 258° (WSW) 18:02:18 437.365/2234.400
CUSAT 1 01 Oct 17:55:27 18:00:59 28° 84° (E) 18:07:16 437.405
LilacSat-2 01 Oct 17:57:16 18:00:45 39° 73° (ENE) 18:04:18 437.200
NOAA 15 01 Oct 18:14:37 18:19:55 85° 75° (ENE) 18:25:17 137.62
NOAA 18 01 Oct 18:21:29 18:26:53 66° 72° (ENE) 18:32:19 137.9125
GONETS M04 01 Oct 18:22:02 18:29:04 26° 66° (ENE) 18:36:00
DANDE 01 Oct 18:26:31 18:30:07 17° 77° (ENE) 18:34:10 436.750
ISS 01 Oct 18:40:19 18:43:15 32° 136° (SE) 18:46:13 145.825
CUTE-I 01 Oct 18:44:58 18:50:13 63° 259° (W) 18:55:31 437.470
CUTE 1.7 + AOD 2 01 Oct 18:45:27 18:47:09 12° 63° (ENE) 18:48:52 437.475
Cubesat XI-IV 01 Oct 18:46:13 18:51:27 62° 259° (WSW) 18:56:45 437.490
CANX-2 01 Oct 18:46:50 18:49:12 15° 64° (ENE) 18:51:35 2200.000
RS-15 01 Oct 18:56:52 19:07:42 49° 109° (ESE) 19:19:03 29.354- 29.394
DOVE 4 01 Oct 18:57:32 19:02:30 87° 256° (WSW) 19:07:11 437.250
GOMX 1 01 Oct 18:57:44 19:02:44 40° 262° (W) 19:07:31 467.674
CUBESAT XI-V 01 Oct 19:01:51 19:05:54 30° 291° (WNW) 19:09:55 437.345
HO-68 01 Oct 19:04:30 19:11:01 40° 64° (ENE) 19:17:33 435.675
Cosmos 2499 01 Oct 19:05:13 19:12:20 39° 74° (ENE) 19:19:54 435.465 / 435.565
LilacSat-2 01 Oct 19:33:19 19:35:15 13° 268° (W) 19:37:10 437.200
CUSAT 1 01 Oct 19:35:48 19:42:21 58° 285° (WNW) 19:50:07 437.405
COMPASS 1 01 Oct 19:36:08 19:39:15 21° 67° (ENE) 19:42:23 437.405
CINEMA 3 01 Oct 19:38:51 19:43:13 66° 75° (ENE) 19:47:27 145.822/145.860
NOAA 15 01 Oct 19:58:40 20:00:20 11° 271° (W) 20:02:02 137.62
AO-85 01 Oct 20:01:49 20:06:51 51° 118° (ESE) 20:11:38 145.980
FUNcube-1 01 Oct 20:04:11 20:05:51 12° 63° (ENE) 20:07:31 145.935
NOAA 18 01 Oct 20:04:45 20:08:00 16° 269° (W) 20:11:17 137.9125
DANDE 01 Oct 20:06:01 20:11:34 76° 282° (WNW) 20:18:54 436.750
STRAND 1 01 Oct 20:09:20 20:14:27 62° 101° (ESE) 20:19:33 437.568
SEEDS 01 Oct 20:11:36 20:15:47 75° 75° (ENE) 20:20:02 437.485
ISS 01 Oct 20:16:46 20:19:43 32° 333° (NNW) 20:22:43 145.825
CUBEBUG 2 01 Oct 20:17:42 20:21:40 44° 73° (ENE) 20:25:37 437.445
GONETS M04 01 Oct 20:17:56 20:26:40 71° 267° (W) 20:35:19
CUTE 1.7 + AOD 2 01 Oct 20:18:15 20:22:26 63° 259° (W) 20:26:41 437.475
CANX-2 01 Oct 20:20:30 20:24:37 50° 261° (W) 20:28:48 2200.000
AAUSAT CUBESAT 2 01 Oct 20:21:44 20:25:46 51° 73° (ENE) 20:29:50 437.432
UWE-3 01 Oct 20:26:47 20:30:35 36° 72° (ENE) 20:34:24 435.000/436.395/437.385
Oscar 11 01 Oct 20:36:00 20:39:44 29° 69° (ENE) 20:43:30 145.826/435.025
ZACube-1 01 Oct 20:46:14 20:50:02 37° 72° (ENE) 20:53:54 437.345
HO-68 01 Oct 20:52:01 20:58:39 41° 262° (W) 21:05:20 435.675
Cosmos 2499 01 Oct 20:58:19 21:05:25 42° 271° (W) 21:13:02 435.465 / 435.565
DELFI C3 01 Oct 21:05:25 21:08:36 23° 69° (ENE) 21:11:49 145.870
RS-15 01 Oct 21:08:39 21:20:04 55° 313° (NW) 21:32:06 29.354- 29.394
COMPASS 1 01 Oct 21:10:47 21:14:35 33° 263° (W) 21:18:25 437.405
CINEMA 3 01 Oct 21:20:02 21:20:45 10° 270° (W) 21:21:28 145.822/145.860
CUSAT 1 01 Oct 21:23:51 21:26:20 12° 307° (NW) 21:28:55 437.405
FUNcube-1 01 Oct 21:37:31 21:41:35 58° 261° (W) 21:45:41 145.935
PRISM 01 Oct 21:41:39 21:45:42 52° 101° (E) 21:49:41 437.425
AO-85 01 Oct 21:43:23 21:47:33 25° 314° (NW) 21:51:30 145.980
STRAND 1 01 Oct 21:49:49 21:53:07 17° 298° (WNW) 21:56:25 437.568
DANDE 01 Oct 21:53:01 21:56:04 14° 306° (NW) 21:59:25 436.750
ISS 01 Oct 21:55:13 21:56:58 14° 353° (N) 21:58:45 145.825
CUBEBUG 2 01 Oct 21:56:16 21:58:32 14° 268° (W) 22:00:47 437.445
AAUSAT CUBESAT 2 01 Oct 21:59:35 22:01:33 13° 270° (W) 22:03:30 437.432
HUMSAT D 01 Oct 22:03:37 22:07:36 53° 74° (ENE) 22:11:38 437.325/437.525
UWE-3 01 Oct 22:04:26 22:07:11 17° 267° (W) 22:09:58 435.000/436.395/437.385
Oscar 11 01 Oct 22:12:22 22:15:51 24° 265° (W) 22:19:22 145.826/435.025
GONETS M04 01 Oct 22:18:43 22:21:43 12° 287° (WNW) 22:24:44
ESTCUBE 1 01 Oct 22:20:51 22:23:27 15° 63° (ENE) 22:26:02 437.505/2401.250
ZACube-1 01 Oct 22:23:48 22:26:29 17° 268° (W) 22:29:12 437.345
ANTELSAT 01 Oct 22:27:12 22:30:48 24° 95° (E) 22:34:28 437.575/2403.000
DELFI C3 01 Oct 22:39:55 22:43:19 26° 264° (W) 22:46:45 145.870
TIGRISAT 01 Oct 22:46:05 22:50:11 35° 98° (E) 22:54:20 435.000
50 SAT 01 Oct 22:51:52 22:52:44 11° 64° (ENE) 22:53:36 437.505
SO-50 01 Oct 22:52:46 22:57:10 45° 52° (NE) 23:01:28 436.795
AISAT 01 Oct 22:53:57 22:56:50 17° 64° (ENE) 22:59:42 437.250
BEESAT 3 01 Oct 23:05:38 23:07:43 14° 109° (ESE) 23:09:48 437.485
DX 1 01 Oct 23:13:54 23:16:40 17° 64° (ENE) 23:19:25 434.975-435.025
PRISM 01 Oct 23:18:30 23:20:32 14° 297° (WNW) 23:22:34 437.425
RS-15 01 Oct 23:26:53 23:36:17 25° 344° (NNW) 23:45:54 29.354- 29.394
CUBEBUG 1 01 Oct 23:27:57 23:32:10 46° 72° (ENE) 23:36:23 437.445
UNISAT 6 01 Oct 23:27:58 23:32:25 76° 284° (WNW) 23:36:57 437.425
ISS 01 Oct 23:32:19 23:34:29 16° 14° (NNE) 23:36:39 145.825
VELOX 1 01 Oct 23:35:33 23:39:45 43° 71° (ENE) 23:43:57 145.980
AUBIESAT-1 01 Oct 23:35:36 23:38:56 27° 66° (ENE) 23:42:04 437.475
JAS-2 01 Oct 23:40:17 23:46:27 25° 90° (E) 23:52:17 435.910
DUCHIFAT 1 01 Oct 23:40:50 23:43:24 16° 92° (E) 23:45:58 145.980
HUMSAT D 01 Oct 23:42:01 23:43:34 12° 270° (W) 23:45:07 437.325/437.525
QB50P1 01 Oct 23:47:27 23:50:43 22° 94° (E) 23:53:59 145.935-145.965
SPROUT 01 Oct 23:47:56 23:51:40 31° 70° (ENE) 23:55:26 437.525
ESTCUBE 1 01 Oct 23:55:19 23:59:46 56° 260° (W) 00:04:16 437.505/2401.250
POPSAT HIP 1 02 Oct 00:01:03 00:04:47 30° 97° (E) 00:08:31 437.405
ANTELSAT 02 Oct 00:03:33 00:07:32 32° 290° (WNW) 00:11:34 437.575/2403.000
Cosmos 2491 02 Oct 00:06:46 00:12:13 17° 60° (ENE) 00:17:39 435.465 / 435.565
BEESAT 2 02 Oct 00:08:47 00:12:21 34° 115° (ESE) 00:15:58 435.950
UKube-1 02 Oct 00:10:46 00:14:57 50° 72° (ENE) 00:19:08 .
NANOSAT C BR1 02 Oct 00:13:59 00:17:57 40° 98° (E) 00:21:56 145.865
M-CUBED/EXP-1 PRIME 02 Oct 00:16:15 00:20:17 75° 252° (WSW) 00:24:00 437.505
50 SAT 02 Oct 00:22:12 00:25:44 52° 260° (W) 00:29:20 437.505
TIGRISAT 02 Oct 00:23:14 00:26:39 22° 293° (WNW) 00:30:08 435.000
AISAT 02 Oct 00:28:38 00:32:55 47° 261° (W) 00:37:13 437.250
SO-50 02 Oct 00:34:01 00:37:17 20° 249° (WSW) 00:40:31 436.795
BEESAT 3 02 Oct 00:41:09 00:44:56 48° 306° (NW) 00:48:46 437.485
QB50P2 02 Oct 00:41:40 00:45:54 84° 284° (WNW) 00:50:08 145.880/145.840
POLYITAN 1 02 Oct 00:43:48 00:48:04 84° 282° (WNW) 00:52:18 437.675
DX 1 02 Oct 00:48:15 00:52:28 47° 260° (W) 00:56:42 434.975-435.025
TISAT 1 02 Oct 00:51:52 00:55:33 31° 70° (ENE) 00:59:14 437.305
BUGSAT 1 02 Oct 00:58:45 01:02:39 47° 100° (E) 01:06:34 437.445
CUBEBUG 1 02 Oct 01:05:57 01:08:41 16° 268° (W) 01:11:24 437.445
YUBILEINY 02 Oct 01:07:34 01:11:55 15° 75° (ENE) 01:16:14 435.215
ISS 02 Oct 01:08:17 01:11:31 56° 33° (NNE) 01:14:45 145.825
AUBIESAT-1 02 Oct 01:10:20 01:13:21 21° 258° (WSW) 01:16:14 437.475
VELOX 1 02 Oct 01:13:26 01:16:23 17° 267° (W) 01:19:21 145.980
DUCHIFAT 1 02 Oct 01:15:19 01:19:17 42° 288° (WNW) 01:23:14 145.980
QB50P1 02 Oct 01:22:48 01:26:31 31° 290° (WNW) 01:30:14 145.935-145.965
JAS-2 02 Oct 01:24:13 01:32:01 68° 289° (WNW) 01:39:17 435.910
SPROUT 02 Oct 01:24:18 01:27:38 22° 266° (W) 01:30:58 437.525
POPSAT HIP 1 02 Oct 01:37:06 01:40:25 23° 292° (WNW) 01:43:44 437.405
Gurwin Techsat 1B 02 Oct 01:42:41 01:45:18 14° 90° (E) 01:47:55 435.225
RS-15 02 Oct 01:44:39 01:54:36 27° 20° (NNE) 02:04:30 29.354- 29.394
Oscar 19 02 Oct 01:46:04 01:50:36 31° 96° (E) 01:55:07 437.125/150
BEESAT 2 02 Oct 01:47:04 01:50:15 23° 313° (NW) 01:53:27 435.950
ITUPSAT 1 02 Oct 01:47:08 01:51:03 26° 67° (ENE) 01:55:01 437.325
UKube-1 02 Oct 01:48:55 01:51:15 14° 268° (W) 01:53:36 .
NANOSAT C BR1 02 Oct 01:50:35 01:53:23 18° 294° (WNW) 01:56:11 145.865
SWISSCUBE 02 Oct 01:57:08 02:01:28 37° 70° (ENE) 02:05:52 437.505
Cosmos 2491 02 Oct 02:01:38 02:10:33 83° 83° (E) 02:19:21 435.465 / 435.565
BEESAT 02 Oct 02:09:24 02:13:54 44° 71° (ENE) 02:18:26 436.000
TISAT 1 02 Oct 02:28:01 02:31:13 21° 265° (W) 02:34:26 437.305
BUGSAT 1 02 Oct 02:35:30 02:37:39 14° 295° (WNW) 02:39:46 437.445
PCSat 02 Oct 02:42:17 02:46:10 20° 106° (ESE) 02:50:05 145.827
ISS 02 Oct 02:45:34 02:47:43 16° 229° (SW) 02:49:51 145.825
KKS-1 02 Oct 02:49:25 02:51:12 12° 61° (ENE) 02:52:57 437.445
ITAMSAT 1 02 Oct 02:50:21 02:53:30 16° 91° (E) 02:56:38 435.822/435.867
AO-7 02 Oct 02:54:27 02:57:38 12° 87° (E) 03:00:49 29.400- 29.500
Cosmos 2504 02 Oct 02:54:33 03:00:23 27° 85° (E) 03:06:07 435.465 / 435.565
MOZHAYETS 4 02 Oct 02:55:45 02:59:17 22° 66° (ENE) 03:02:50
YUBILEINY 02 Oct 02:58:26 03:07:12 80° 95° (E) 03:15:58 435.215
AIST 2 02 Oct 03:10:16 03:14:21 78° 303° (WNW) 03:18:31 435.215
JAS-2 02 Oct 03:11:31 03:15:31 15° 308° (NW) 03:19:27 435.910
Gurwin Techsat 1B 02 Oct 03:20:28 03:25:47 73° 287° (WNW) 03:31:04 435.225
ITUPSAT 1 02 Oct 03:24:27 03:28:44 33° 263° (W) 03:33:04 437.325
Oscar 19 02 Oct 03:25:21 03:29:52 32° 293° (WNW) 03:34:21 437.125/150
SWISSCUBE 02 Oct 03:35:35 03:39:21 23° 265° (W) 03:43:09 437.505
BEESAT 02 Oct 03:48:28 03:51:53 19° 267° (W) 03:55:18 436.000
RS-15 02 Oct 03:58:02 04:10:21 63° 50° (NE) 04:22:22 29.354- 29.394
Cosmos 2491 02 Oct 04:00:21 04:06:13 20° 282° (WNW) 04:12:03 435.465 / 435.565
KKS-1 02 Oct 04:22:45 04:27:10 69° 257° (WSW) 04:31:37 437.445
PCSat 02 Oct 04:23:49 04:29:06 56° 303° (WNW) 04:34:28 145.827
CUBESAT XI-V 02 Oct 04:27:41 04:31:38 27° 68° (ENE) 04:35:37 437.345
ITAMSAT 1 02 Oct 04:28:12 04:33:22 62° 288° (WNW) 04:38:31 435.822/435.867
CUSAT 1 02 Oct 04:30:21 04:35:45 21° 61° (ENE) 04:40:29 437.405
MOZHAYETS 4 02 Oct 04:32:00 04:36:12 36° 263° (W) 04:40:29
AO-85 02 Oct 04:34:11 04:38:04 36° 50° (NE) 04:41:43 145.980
STARS 02 Oct 04:43:21 04:47:44 86° 253° (WSW) 04:52:08 437.465
AO-7 02 Oct 04:43:25 04:51:44 72° 106° (ESE) 05:00:00 29.400- 29.500
Cosmos 2504 02 Oct 04:46:13 04:53:18 52° 283° (WNW) 05:00:17 435.465 / 435.565
AIST 2 02 Oct 04:52:20 04:53:33 11° 322° (NW) 04:54:47 435.215
YUBILEINY 02 Oct 04:58:34 05:05:01 22° 296° (WNW) 05:11:29 435.215
DANDE 02 Oct 05:03:04 05:08:57 21° 60° (ENE) 05:14:29 436.750
AIST 1 02 Oct 05:12:49 05:17:12 79° 279° (W) 05:21:35
HORYU 2 02 Oct 05:34:02 05:37:59 30° 97° (E) 05:41:54 437.375
STRAND 1 02 Oct 05:50:14 05:51:45 11° 58° (ENE) 05:53:16 437.568
BRITE-PL 02 Oct 05:57:17 06:01:24 31° 95° (E) 06:05:17 437.365/2234.400
O/OREOS (USA 219) 02 Oct 06:04:24 06:08:26 32° 104° (ESE) 06:12:29 437.305
CUBESAT XI-V 02 Oct 06:04:45 06:08:54 31° 264° (W) 06:13:05 437.345
CUSAT 1 02 Oct 06:11:20 06:18:46 74° 264° (W) 06:24:39 437.405
PCSat 02 Oct 06:12:10 06:13:45 11° 324° (NW) 06:15:21 145.827
AO-85 02 Oct 06:15:16 06:18:10 19° 249° (WSW) 06:20:59 145.980
